TimeEDT,TemperatureF,Dew PointF,Humidity,Sea Level PressureIn,VisibilityMPH,Wind Direction,Wind SpeedMPH,Gust SpeedMPH,PrecipitationIn,Events,Conditions,WindDirDegrees,DateUTC
12:54 AM,61.0,57.9,90,30.28,-9999.0,Calm,Calm,-,N/A,,Unknown,0,2013-08-18 04:54:00
1:54 AM,61.0,57.9,90,30.27,-9999.0,Calm,Calm,-,N/A,,Unknown,0,2013-08-18 05:54:00
2:54 AM,62.1,59.0,90,30.27,-9999.0,Calm,Calm,-,N/A,,Unknown,0,2013-08-18 06:54:00
3:54 AM,64.0,61.0,90,30.27,-9999.0,Calm,Calm,-,N/A,,Unknown,0,2013-08-18 07:54:00
4:54 AM,63.0,61.0,93,30.27,-9999.0,Calm,Calm,-,N/A,,Unknown,0,2013-08-18 08:54:00
5:54 AM,63.0,60.1,90,30.28,-9999.0,Calm,Calm,-,N/A,,Unknown,0,2013-08-18 09:54:00
6:54 AM,66.9,64.0,90,30.27,-9999.0,Calm,Calm,-,N/A,,Unknown,0,2013-08-18 10:54:00
7:54 AM,69.1,64.9,87,30.28,-9999.0,NE,3.5,-,N/A,,Unknown,40,2013-08-18 11:54:00
8:54 AM,70.0,60.1,71,30.28,-9999.0,Calm,Calm,-,N/A,,Unknown,0,2013-08-18 12:54:00
9:54 AM,72.0,62.1,71,30.28,-9999.0,Variable,3.5,-,N/A,,Unknown,0,2013-08-18 13:54:00
10:54 AM,71.1,61.0,70,30.28,-9999.0,Calm,Calm,-,N/A,,Unknown,0,2013-08-18 14:54:00
11:54 AM,70.0,64.0,81,30.27,-9999.0,East,3.5,-,N/A,,Unknown,80,2013-08-18 15:54:00
12:54 PM,73.9,63.0,68,30.25,-9999.0,Variable,4.6,-,N/A,,Unknown,0,2013-08-18 16:54:00
1:54 PM,72.0,63.0,73,30.25,-9999.0,Variable,4.6,-,N/A,,Unknown,0,2013-08-18 17:54:00
2:54 PM,72.0,62.1,71,30.22,-9999.0,Variable,3.5,-,N/A,,Unknown,0,2013-08-18 18:54:00
3:54 PM,71.1,59.0,66,30.19,-9999.0,ENE,3.5,-,N/A,,Unknown,70,2013-08-18 19:54:00
4:54 PM,68.0,61.0,78,30.19,-9999.0,Calm,Calm,-,N/A,,Unknown,0,2013-08-18 20:54:00
5:54 PM,68.0,61.0,78,30.17,-9999.0,Calm,Calm,-,N/A,,Unknown,0,2013-08-18 21:54:00
6:54 PM,68.0,60.1,76,30.16,-9999.0,NNE,3.5,-,N/A,,Unknown,20,2013-08-18 22:54:00
7:54 PM,66.9,61.0,81,30.16,-9999.0,North,3.5,-,N/A,,Unknown,10,2013-08-18 23:54:00
8:54 PM,64.0,59.0,84,30.13,-9999.0,Variable,4.6,-,0.04,,Unknown,0,2013-08-19 00:54:00
9:54 PM,64.0,60.1,87,30.16,-9999.0,Calm,Calm,-,N/A,,Unknown,0,2013-08-19 01:54:00
10:54 PM,63.0,57.9,84,30.13,-9999.0,Calm,Calm,-,N/A,,Unknown,0,2013-08-19 02:54:00
11:54 PM,62.1,59.0,90,30.13,-9999.0,Calm,Calm,-,N/A,,Unknown,0,2013-08-19 03:54:00